Location: Austin
(30.3000°N, 97.7500°W)
Time: 02:45:43
(UTC-05:00)

SL-08 R/B - Pass Details

Date: 01 October 2024
Orbit: 670 x 732 km, 98.5° (Epoch: 06 October)

Event Time Altitude Azimuth Distance (km) Brightness Sun altitude
Rises 20:47:15 0° 6° (N) 3,133 6.7 -20.6°
Reaches altitude 10° 20:49:34 10° 3° (N) 2,201 5.9 -21.1°
Maximum altitude 20:54:17 55° 286° (WNW) 845 4.0 -22.1°
Drops below altitude 10° 20:58:53 10° 208° (SSW) 2,151 6.0 -23.1°
Sets 21:01:08 0° 204° (SSW) 3,055 6.8 -23.6°
